THOR ABLESTAR DEB, 13942

Orbit data source: Space-Track

THOR ABLESTAR DEB, 13942 is space debris in LEO originally from a launch on Thu, 29 Jun 1961 UTC launched from the Air Force Eastern Test Range (AFETR). Debris objects in space refer to the collection of defunct objects orbiting the Earth. Examples of debris include non-operational satellites, rocket bodies, and fragments generated from explosions, collisions, or faulty payload assembly.

Loading next visibility...
Identifier
13942, 1961-015KZ
Orbit
LEO
Country
Flag of USUS
Related business
Manufacturer
Unknown
Mission
Spacecraft
Bus & Motor
Unknown
Mass
Unknown
Launch date (UTC)
1961-06-29 (65 years ago)
Launch vehicle
Unknown
Launch site
Air Force Eastern Test Range (AFETR)
Object type
Payload
Rocket body
Debris
Shape & HBR
Unknown shape, 0.1 m
Radar Cross Section
Small (<0.1 m²)

Expand to show TLE details & history
Last TLE update: 4 hours ago

TLE from 4 hours ago
0 THOR ABLESTAR DEB
1 13942U 61015KZ  26095.54761164  .00000713  00000-0  15961-2 0  9993
2 13942  65.8596 153.3639 0393923 301.3786 172.0171 13.07548071 59141
Epoch: 2026-04-05T13:08Z
TLE epoch observation values (Epoch: 2026-04-05T13:08:33.645Z)
Latitude
56.58908°
Longitude
-100.16906°
Altitude
1,538.347 km
Speed
6.963 km/s
True Right ascension
19h 23m 17s
True Declination
56° 26' 47"
Sunlit
Object was in daylight at epoch
Visualization orbit readout
Latitude
Unknown
Longitude
Unknown
Altitude
Unknown
Speed
Unknown
Apparent Right ascension
Unknown
Apparent Declination
Unknown
Sunlit
N/A
Visualization observer readout
Local Sidereal Time
23:16:52
Azimuth
Unknown
Elevation
Unknown
Doppler factor
Unknown
Orbital elements
Apogee altitude
1,530.969 km
Perigee altitude
931.469 km
Semi-major axis
7,609.356 km
Eccentricity
0.03939
Inclination
65.8596°
RAAN
153.3639°
Arg. of periapsis
301.3786°
True anomaly
172.61479°
Mean anomaly
172.0171°
Eccentric anomaly
172.31878°
Mean motion
3.2698 °/min
Orbital period
110.1 mins
BSTAR
0.0015961
Loading maneuver chart data...
Computing Atmospheric mass density...

Documentation

Showing up to 5 results
|